Location: Bienfait
(49.1431°N, 102.8077°W)
Time: 16:01:10
(UTC+00:00)

Envisat - Pass Details

Date: 30 January 2022
Orbit: 764 x 765 km, 98.2° (Epoch: 15 May)

Event Time Altitude Azimuth Distance (km) Brightness Sun altitude
Rises 11:48:53 0° 14° (NNE) 3,244 6.5 -25.5°
Reaches altitude 10° 11:51:12 10° 16° (NNE) 2,313 5.7 -25.1°
Maximum altitude 11:56:19 80° 103° (ESE) 783 3.0 -24.3°
Drops below altitude 10° 12:01:23 10° 191° (SSW) 2,298 5.3 -23.5°
Sets 12:03:41 0° 193° (SSW) 3,220 6.1 -23.1°
